Regional Weather Roundup
Issued by NWS

Home | Current Version | Previous Version | Graphics & Text | Print | Product List | Glossary On
Versions: 1 2 3 4 5 6 7 8 9 10 11 12 13 14 15 16 17 18 19 20 21 22 23 24 25 26 27 28 29 30 31 32 33 34 35 36 37 38 39 40 41 42 43 44 45 46 47 48 49 50
058
ASUS45 KCYS 252210
RWRWY

WYOMING REGIONAL WEATHER ROUNDUP
NATIONAL WEATHER SERVICE CHEYENNE WY
400 PM MDT MON JUL 25 2016

NOTE:  "FAIR" INDICATES FEW OR NO CLOUDS BELOW 12,000 FEET
WITH NO SIGNIFICANT WEATHER AND/OR OBSTRUCTIONS TO VISIBILITY.

WYZ001-252300-
YELLOWSTONE NATIONAL PARK

CITY           SKY/WX    TMP DP  RH WIND       PRES   REMARKS
LK YELLOWSTONE   N/A     79  20  11 VRB5      30.35S
W YELLOWSTONE  NOT AVBL

$$
WYZ002>013-054>058-071-098>099-252300-
NORTHERN WYOMING

CITY           SKY/WX    TMP DP  RH WIND       PRES   REMARKS
JACKSON        SUNNY     88  27  11 SW10      30.21F
CODY           FAIR      90  36  14 N7        30.08S
GREYBULL       FAIR      98  23   7 N9        29.97F HX  91
WORLAND        FAIR      96  28   9 NE7       30.00F HX  90
SHERIDAN       FAIR      98  34  10 VRB3      29.99F HX  92
BUFFALO        FAIR      95  32  11 SE8G20    30.07F HX  90
GILLETTE       FAIR      95  33  11 NE10      30.03F HX  90
HULETT         FAIR      93  36  13 CALM      30.06S
NEWCASTLE      FAIR      91  41  17 SW9G20    30.06F

$$
WYZ014>020-022>026-101>103-252300-
CENTRAL WYOMING

CITY           SKY/WX    TMP DP  RH WIND       PRES   REMARKS
BIG PINEY      FAIR      88  26  10 S9        30.25F
PINEDALE       FAIR      86  25  10 S3        30.27F
DUBOIS         FAIR      84  19   9 W9G21     30.25S
LANDER         FAIR      94  27   9 VRB3      30.10F
RIVERTON       FAIR      93  22   7 S9        30.10F
CASPER         FAIR      96  18   6 W16G25    30.09F
DOUGLAS          N/A    N/A N/A N/A MISG      30.08F

$$
WYZ021-027>030-104>119-252300-
SOUTHERN WYOMING

CITY           SKY/WX    TMP DP  RH WIND       PRES   REMARKS
EVANSTON       FAIR      90  26  10 W20G26    30.26F
KEMMERER       LGT RAIN  82  30  15 SW14G43   30.26F
FORT BRIDGER   FAIR      94  24   8 W17G26    30.27F
ROCK SPRINGS   FAIR      90  25   9 SW30G36   30.23F
DIXON          FAIR      92  25   9 SW8       30.25F
RAWLINS        FAIR      91  14   6 W17G23    30.24F
SARATOGA       FAIR      86  25  10 W9        30.27F
LARAMIE        FAIR      88  18   7 NW18G28   30.27F
CHEYENNE       FAIR      88  46  23 S17G26    30.19F
TORRINGTON     FAIR      95  48  20 SE14G21   30.03F HX  91
PINE BLUFFS    FAIR      86  52  30 SE16G22   30.15F

$$




USA.gov is the U.S. government's official web portal to all federal, state and local government web resources and services.